This demonstration page uses our WeatherBlox Daily Observations layout. Learn more.

Left ArrowRight Arrow

36.17497, -115.13722

Hourly Observations for January 11, 2021

Temp ( °F °C ) Dew Point ( °F °C ) Humidity (%) Winds ( mph kmh ) Pressure ( in mb ) Visibility ( mi km ) Precip ( " mm )
12:53 am 00:53 Clear 40 4.4 18 -7.8 41 41 WNW 3 6 30.32 1027 10 16 N/A
1:53 am 01:53 Clear 39 3.9 18 -7.8 43 43 NNW 6 9 30.33 1027 10 16 N/A
2:53 am 02:53 Clear 43 6.1 16 -8.9 34 34 NNW 7 11 30.33 1027 10 16 N/A
3:53 am 03:53 Clear 40 4.4 17 -8.3 40 40 W 6 9 30.33 1027 10 16 N/A
4:53 am 04:53 Clear 37 2.8 16 -8.9 42 42 W 5 7 30.34 1027 10 16 N/A
5:53 am 05:53 Clear 37 2.8 17 -8.3 44 44 W 3 6 30.35 1028 10 16 N/A
6:53 am 06:53 Sunny 38 3.3 17 -8.3 43 43 W 3 6 30.36 1028 10 16 N/A
7:53 am 07:53 Sunny 39 3.9 18 -7.8 43 43 WNW 8 13 30.38 1029 10 16 N/A
8:53 am 08:53 Sunny 46 7.8 19 -7.2 34 34 N N/A 30.40 1029 10 16 N/A
9:53 am 09:53 Sunny 50 10 19 -7.2 29 29 NW 7 11 30.42 1030 10 16 N/A
10:53 am 10:53 Sunny 53 11.7 19 -7.2 26 26 NNW 6 9 30.39 1029 10 16 N/A
11:53 am 11:53 Sunny 54 12.2 19 -7.2 25 25 ENE 8 13 30.36 1028 10 16 N/A
12:53 pm 12:53 Sunny 56 13.3 17 -8.3 22 22 E 6 9 30.33 1027 10 16 N/A
1:53 pm 13:53 Sunny 58 14.4 15 -9.4 18 18 VRB 3 6 30.31 1026 10 16 N/A
2:53 pm 14:53 Sunny 58 14.4 13 -10.6 17 17 SE 5 7 30.29 1026 10 16 N/A
3:53 pm 15:53 Sunny 57 13.9 12 -11.1 17 17 ESE 7 11 30.29 1026 10 16 N/A
4:53 pm 16:53 Clear 55 12.8 13 -10.6 19 19 ESE 6 9 30.30 1026 10 16 N/A
5:53 pm 17:53 Clear 52 11.1 14 -10 22 22 SW 3 6 30.32 1027 10 16 N/A
6:53 pm 18:53 Clear 48 8.9 13 -10.6 24 24 WSW 3 6 30.33 1027 10 16 N/A
7:53 pm 19:53 Clear 45 7.2 15 -9.4 30 30 NNW 6 9 30.33 1027 10 16 N/A
8:53 pm 20:53 Clear 44 6.7 15 -9.4 31 31 WNW 6 9 30.34 1027 10 16 N/A
9:53 pm 21:53 Clear 43 6.1 9 -12.8 25 25 WNW 7 11 30.35 1028 10 16 N/A
10:53 pm 22:53 Clear 40 4.4 12 -11.1 32 32 NW 3 6 30.35 1028 10 16 N/A
11:53 pm 23:53 Clear 39 3.9 14 -10 36 36 W 3 6 30.34 1027 10 16 N/A

Powered by AerisWeather